Location: St. Louis
(38.6270°N, 90.1994°W)
Time: 01:29:13
(UTC-05:00)

ISS - Visible Passes

Search period start: 26 October 2021 00:00
Search period end: 05 November 2021 00:00
Orbit: 417 x 423 km, 51.6° (Epoch: 25 October)

Date Brightness Start Highest point End Pass type
(mag) Time Alt. Az. Time Alt. Az. Time Alt. Az.
26 Oct -0.3 04:44:53 11° NE 04:44:53 11° NE 04:45:01 10° NE visible
26 Oct -2.0 06:17:53 17° NW 06:18:47 19° NNW 06:21:16 10° NNE visible
27 Oct -1.6 05:32:48 19° N 05:32:48 19° N 05:34:16 10° NNE visible
28 Oct -1.4 06:20:37 11° NNW 06:21:34 12° NNW 06:22:51 10° N visible
29 Oct -1.1 05:35:23 12° N 05:35:23 12° N 05:35:59 10° NNE visible
03 Nov -1.2 06:28:24 10° NNW 06:30:13 14° NNE 06:32:02 10° NE visible
04 Nov -1.0 05:42:24 11° N 05:42:39 11° NNE 05:43:46 10° NNE visible
